Regional Weather Roundup
Issued by NWS

Home | Current Version | Previous Version | Text Only | Print | Product List | Glossary Off
Versions: 1 2 3 4 5 6 7 8 9 10 11 12 13 14 15 16 17 18 19 20 21 22 23 24 25 26 27 28 29 30 31 32 33 34 35 36 37 38 39 40 41 42 43 44 45 46 47 48 49 50

393
ASUS43 KIND 271600
RWRIN

WEATHER ROUNDUP FOR INDIANA
NATIONAL WEATHER SERVICE INDIANAPOLIS IN
1200 PM EDT SUN MAY 27 2018

NOTE: "FAIR" INDICATES FEW OR NO CLOUDS BELOW 12,000 FEET WITH NO
SIGNIFICANT WEATHER AND/OR OBSTRUCTIONS TO VISIBILITY.

* - STATION DOES NOT REPORT WEATHER SUCH AS PRECIPITATION OR FOG.

+ - STATION NOT QUALITY CONTROLLED BY THE NATIONAL WEATHER SERVICE.
    USE DATA WITH CAUTION...ESPECIALLY DEWPOINT AND RELATIVE
    HUMIDITY OBSERVATIONS.

INZ001>003-010>013-019-020-271700-
NORTHWEST INDIANA

CITY           SKY/WX    TMP DP  RH WIND       PRES   REMARKS
GARY /AIRPORT/ MOSUNNY   90  61  37 SW6       29.88S
KNOX *+        FAIR      90  64  43 W6        29.89F HX  91
LA PORTE +     FAIR      87  65  47 W12       29.91S
MICHIGAN CITY+ FAIR      86  64  48 CALM      29.89S
MONTICELLO +   FAIR      87  65  47 CALM      29.90S
RENSSELAER +   FAIR      88  50  27 S6        29.90S

$$

LMZ046-743>745-271700-
SOUTHERN LAKE MICHIGAN

STATION/POSITION TIME  TEMP    WIND        PRES    WAVE
                       AIR SEA DIR/SP/G            HT
                 (UTC) (F)     (DEG/KT/KT) (MB)    (FT)
BURNS HARBOR     1540   78        CALM     1012.2F
MICHIGAN CITY    1530   81     270/  4/  4   N/A
5NW MICH CITY    1550   78 65     CALM       N/A     0

$$

INZ004-005-014>016-021>024-271700-
NORTH CENTRAL INDIANA

CITY           SKY/WX    TMP DP  RH WIND       PRES   REMARKS
ELKHART        FAIR      90  68  48 W9        29.90S HX  93
GOSHEN         FAIR      88  69  53 W10G16    29.90S HX  92
LOGANSPORT +   FAIR      86  63  45 CALM      29.92S
ROCHESTER +    FAIR      90  64  43 NW3       29.91S HX  91
SOUTH BEND     FAIR      86  69  56 VRB5      29.90S HX  90
WARSAW +       FAIR      86  68  54 W9        29.91S

$$

INZ006>009-017-018-025>027-271700-
NORTHEAST INDIANA

CITY           SKY/WX    TMP DP  RH WIND       PRES   REMARKS
ANGOLA *+      FAIR      86  63  45 SW7       29.91S
FORT WAYNE     FAIR      88  64  44 W7        29.92S
HUNTINGTON +   FAIR      86  61  43 W6        29.91F
KENDALLVILLE + FAIR      85  61  43 W6        29.92S

$$

INZ028-029-035-036-043>045-051>053-271700-
WEST CENTRAL INDIANA

CITY           SKY/WX    TMP DP  RH WIND       PRES   REMARKS
CRAWFORDSVL +  FAIR      85  66  53 CALM      29.92S
GREENCASTLE +  FAIR      86  64  48 CALM      29.93S
LAFAYETTE      FAIR      87  65  47 CALM      29.89F
TERRE HAUTE    FAIR      88  71  57 VRB6      29.91S HX  94

$$

INZ030>032-037>040-046>048-054>057-064-065-271700-
CENTRAL INDIANA

CITY           SKY/WX    TMP DP  RH WIND       PRES   REMARKS
COLUMBUS       SUNNY     82  68  61 CALM      29.93S
FRANKFORT +    FAIR      90  67  46 CALM      29.93F HX  92
GREENWOOD *+   FAIR      85  68  55 CALM      29.93S
INDIANAPOLIS   FAIR      87  66  49 CALM      29.91F
-EAGLE CREEK   FAIR      88  69  53 CALM      29.91F HX  92
KOKOMO +       FAIR      88  65  46 SW3       29.93S HX  90
MT COMFORT *+  FAIR      84  72  65 CALM      29.92F
SHELBYVILLE    FAIR      87  68  52 W3        29.91F HX  90
ZIONSVILLE +   FAIR      87  65  47 NW3       29.93S

$$

INZ033-034-041-042-049-050-058-059-271700-
EAST CENTRAL INDIANA

CITY           SKY/WX    TMP DP  RH WIND       PRES   REMARKS
MUNCIE         FAIR      90  63  40 W6        29.92S HX  91
RICHMOND +     FAIR      82  70  65 SW6       29.95S

$$

INZ060-061-067>069-081>083-085>088-271700-
SOUTHWEST INDIANA

CITY           SKY/WX    TMP DP  RH WIND       PRES   REMARKS
EVANSVILLE     FAIR      85  72  65 VRB3      29.92F HX  91
HUNTINGBURG +  FAIR      84  71  65 VRB5      29.94S
WASHINGTON +   FAIR      85  69  60 SW3       29.92S

$$

INZ062-063-066-070>080-084-089>092-271700-
SOUTH CENTRAL AND SOUTHEAST INDIANA

CITY           SKY/WX    TMP DP  RH WIND       PRES   REMARKS
BLOOMINGTON    FAIR      85  71  63 SW6       29.93S HX  90
FRENCH LICK *+ FAIR      82  61  47 S5        29.95R
MADISON *+     FAIR      81  68  65 CALM      29.97S
SEYMOUR +      FAIR      86  70  58 CALM      29.93S HX  90

$$





USA.gov is the U.S. government's official web portal to all federal, state and local government web resources and services.